Showing default

HJS-4B, 58692

Orbit data source: Space-Track

HJS-4B, 58692 is a payload satellite owned by CASC (CN) in LEO that was launched on Sat, 30 Dec 2023 UTC via a CHANG ZHENG 2C/YZ-1S launch vehicle from the Jiuquan Satellite Launch Center, China (JSC). Payloads include a variety of satellites, spacecraft, and rockets equipped with specific instruments for various scientific and technological missions. These include communications satellites like Starlink; space stations such as the ISS; scientific satellites like the Hubble; Earth observation satellites from companies like Planet Labs, Umbra, and HawkEye 360; GPS; miniature CubeSats for education and research; and military/defense satellites.

Loading next visibility...
HJS-4B details
Identifier
58692, 2023-212B
Orbit
LEO
Last TLE update15 hours ago
Origin
Flag of CNCASC (CN / PRC)
ManufacturerCAST
MissionOperational Civil Communications
Bus & MotorUnknown
Mass~300 kg wet, ~300 kg dry
Launch date (UTC)
2023-12-30 (1 year ago)
Launch vehicle
CHANG ZHENG 2C/YZ-1S
Launch site
Jiuquan Satellite Launch Center, China (JSC)
Object type
Payload
Rocket body
Debris
Shape & HBRBox + 2 Pan, 2.5 m
Radar Cross Section2.320 m², Large (>1 m²)

Expand to show TLE details & history

TLE from 15 hours ago
0 HJS-4B
1 58692U 23212B   24355.89123526 -.00000063  00000-0  11600-3 0  9996
2 58692  49.9945 174.5992 0000266 219.7899 140.2958 13.41410089 48325
Epoch: 2024-12-20T21:23Z
Definitive object data (Epoch: 2024-12-20T21:23:22.726Z)
Latitude-0.00008°
Longitude123.8042°
Altitude1,104.693 km
Speed7.301 km/s
True Right ascension11h 38m 23s
True Declination0° 00' 00"
Sunlit
Object was in daylight at TLE epoch
Visualization TLE readout
Latitude42.69404°
Longitude-108.85244°
Altitude1,107.982 km
Speed7.304 km/s
Apparent Right ascension21h 37m 12s
Apparent Declination5° 53' 38"
Sunlit
Object is in daylight
Visualization observer readout
Local Sidereal Time11:18:32
Azimuth32.99° NE
Elevation-38.585°
Doppler factor1
Orbital elements
Apogee altitude1,104.941 km
Perigee altitude1,104.543 km
Semi-major axis7,482.879 km
Eccentricity0.0000266
Inclination49.9945°
RAAN174.5992°
Arg. of periapsis219.7899°
True anomaly140.29775°
Mean anomaly140.2958°
Eccentric anomaly140.29677°
Mean motion3.35305 °/min
BSTAR0.000116
Orbital period107.36 mins
Loading maneuver chart data...
Loading historical data...
Loading historical data...
Loading historical data...
Loading historical data...
Loading historical data...
Loading historical data...
Loading historical data...
Other satellites on launch #212 in the year 2023 (2023-12-30 UTC)

HJS-4B Visibility forecast

Observer location: undefined°, undefined

Span
Click to sort rows by Start time (UTC) header in descending order
Start Az.
Max El. time (UTC)
Max El. Az.
Max El.
End time (UTC)
End Az.
11 mins2024-12-21 13:35:46.441Z185.1° SSW2024-12-21 13:41:46.441Z125.91° SE25.655°2024-12-21 13:46:46.441Z76.314° E
12 mins2024-12-21 15:27:46.441Z239.144° WSW2024-12-21 15:33:46.441Z351.251° N44.708°2024-12-21 15:39:46.441Z54.825° ENE
11 mins2024-12-21 17:21:46.441Z285.499° WNW2024-12-21 17:26:46.441Z344.048° N32.926°2024-12-21 17:32:46.441Z53.999° ENE
11 mins2024-12-21 19:15:46.441Z308.908° NW2024-12-21 19:20:46.441Z7.694° NNE33.101°2024-12-21 19:26:46.441Z77.85° E
12 mins2024-12-21 21:08:46.441Z305.306° NW2024-12-21 21:14:46.441Z91.929° ESE44.469°2024-12-21 21:20:46.441Z122.304° SE
10 mins2024-12-21 23:01:46.441Z279.712° WNW2024-12-21 23:06:46.441Z225.671° WSW24.961°2024-12-21 23:11:46.441Z177.814° S
|